QPF
0.00 0.00 0.00 0.00 0.00 0.00 0.00 0.00 0.00 0.00 0.00 0.00 0.00 0.00 0.00 0.00 0.00 0.00 0.00 0.00 0.00 0.00 0.00 0.00 0.00 0.00 0.00 0.00 0.00 0.00 0.00 0.00 0.00 0.00 0.00 0.00 0.00 0.00 0.00 0.00 0.00 0.00 0.00
0.00 0.00 0.00 0.00 0.00 0.00 0.00 0.00 0.00 0.00 0.00 0.00 0.00 0.00 0.00 0.00 0.00 0.00 0.00 0.00 0.00 0.00 0.00 0.00 0.00 0.00 0.00 0.00 0.00 0.00 0.00 0.00 0.00 0.00 0.00 0.00 0.00 0.00 0.00 0.00 0.00 0.00 0.00
0.00 0.00 0.00 0.00 0.00 0.00 0.00 0.00 0.00 0.00 0.00 0.00 0.00 0.00 0.00 0.00 0.00 0.00 0.00 0.00 0.00 0.00 0.00 0.00 0.00 0.00 0.00 0.00 0.00 0.00 0.00 0.00 0.00 0.00 0.00 0.00 0.00 0.00 0.00 0.00 0.00 0.00 0.00
0.00 0.00 0.00 0.00 0.00 0.00 0.00 0.00 0.00 0.00 0.00 0.00 0.00 0.00 0.00 0.00 0.00 0.00 0.00 0.00 0.00 0.00 0.00 0.00 0.00 0.00 0.00 0.00 0.00 0.00 0.00 0.00 0.00 0.00 0.00 0.00 0.00 0.00 0.00 0.00 0.00 0.00 0.00
0.00 0.00 0.00 0.00 0.00 0.00 0.00 0.00 0.00 0.00 0.00 0.00 0.00 0.00 0.00 0.00 0.00 0.00 0.00 0.00 0.00 0.00 0.00 0.00 0.00 0.00 0.00 0.00 0.00 0.00 0.00 0.00 0.00 0.00 0.00 0.00 0.00 0.00 0.00 0.00 0.00 0.00 0.00
0.00 0.00 0.00 0.00 0.00 0.00 0.00 0.00 0.00 0.00 0.00 0.00 0.00 0.00 0.00 0.00 0.00 0.00 0.00 0.00 0.00 0.00 0.00 0.00 0.00 0.00 0.00 0.00 0.00 0.00 0.00 0.00 0.00 0.00 0.00 0.00 0.00 0.00 0.00 0.00 0.00 0.00 0.00
0.00 0.00 0.00 0.00 0.00 0.00 0.00 0.00 0.00 0.00 0.00 0.00 0.00 0.00 0.00 0.00 0.00 0.00 0.00 0.00 0.00 0.00 0.00 0.00 0.00 0.00 0.00 0.00 0.00 0.00 0.00 0.00 0.00 0.00 0.00 0.00 0.00 0.00 0.00 0.00 0.00 0.00 0.00
0.00 0.00 0.00 0.00 0.00 0.00 0.00 0.00 0.00 0.00 0.00 0.00 0.00 0.00 0.00 0.00 0.00 0.00 0.00 0.00 0.00 0.00 0.00 0.00 0.00 0.00 0.00 0.00 0.00 0.00 0.00 0.00 0.00 0.00 0.00 0.00 0.00 0.00 0.00 0.00 0.00 0.00 0.00
0.00 0.00 0.00 0.00 0.00 0.00 0.00 0.00 0.00 0.00 0.00 0.00 0.00 0.00 0.00 0.00 0.00 0.00 0.00 0.00 0.00 0.00 0.00 0.00 0.00 0.00 0.00 0.00 0.00 0.00 0.00 0.00 0.00 0.00 0.00 0.00 0.00 0.00 0.00 0.00 0.00 0.00 0.00
0.00 0.00 0.00 0.00 0.00 0.00 0.00 0.00 0.00 0.00 0.00 0.00 0.00 0.00 0.00 0.00 0.00 0.00 0.00 0.00 0.00 0.00 0.00 0.00 0.00 0.00 0.00 0.00 0.00 0.00 0.00 0.00 0.00 0.00 0.00 0.00 0.00 0.00 0.00 0.00 0.00 0.00 0.01
0.00 0.00 0.00 0.00 0.00 0.00 0.00 0.00 0.00 0.00 0.00 0.00 0.00 0.00 0.00 0.00 0.00 0.00 0.00 0.00 0.00 0.00 0.00 0.00 0.00 0.00 0.00 0.00 0.00 0.00 0.00 0.00 0.00 0.00 0.00 0.00 0.00 0.00 0.00 0.00 0.00 0.00 0.01
0.00 0.00 0.00 0.00 0.00 0.00 0.00 0.00 0.00 0.00 0.00 0.00 0.00 0.00 0.00 0.00 0.00 0.00 0.00 0.00 0.00 0.00 0.00 0.00 0.00 0.00 0.00 0.00 0.00 0.00 0.00 0.00 0.00 0.00 0.00 0.00 0.00 0.00 0.00 0.00 0.00 0.00 0.00
0.00 0.00 0.00 0.00 0.00 0.00 0.00 0.00 0.00 0.00 0.00 0.00 0.00 0.00 0.00 0.00 0.00 0.00 0.00 0.00 0.00 0.00 0.00 0.00 0.00 0.00 0.00 0.00 0.00 0.00 0.00 0.00 0.00 0.00 0.00 0.00 0.00 0.00 0.00 0.00 0.00 0.00 0.01
0.00 0.00 0.00 0.00 0.00 0.00 0.00 0.00 0.00 0.00 0.00 0.00 0.00 0.00 0.00 0.00 0.00 0.00 0.00 0.00 0.00 0.00 0.00 0.00 0.00 0.00 0.00 0.00 0.00 0.00 0.00 0.00 0.00 0.00 0.00 0.00 0.00 0.00 0.00 0.00 0.01 0.01 0.01
0.00 0.00 0.00 0.00 0.00 0.00 0.00 0.00 0.00 0.00 0.00 0.00 0.00 0.00 0.00 0.00 0.00 0.00 0.00 0.00 0.00 0.00 0.00 0.00 0.00 0.00 0.00 0.00 0.00 0.00 0.00 0.00 0.00 0.00 0.00 0.00 0.01 0.01 0.01 0.02 0.02 0.02 0.02
0.00 0.00 0.00 0.00 0.00 0.00 0.00 0.00 0.00 0.00 0.00 0.00 0.00 0.00 0.00 0.00 0.00 0.00 0.00 0.00 0.00 0.00 0.00 0.00 0.00 0.00 0.00 0.00 0.00 0.00 0.00 0.00 0.00 0.00 0.00 0.00 0.01 0.01 0.02 0.03 0.04 0.05 0.05
0.00 0.00 0.00 0.00 0.00 0.00 0.00 0.00 0.00 0.00 0.00 0.00 0.00 0.00 0.00 0.00 0.00 0.00 0.00 0.00 0.00 0.00 0.00 0.00 0.00 0.00 0.00 0.00 0.00 0.00 0.00 0.00 0.00 0.00 0.01 0.00 0.00 0.01 0.01 0.01 0.02 0.03 0.03
0.00 0.00 0.00 0.00 0.00 0.00 0.00 0.00 0.00 0.00 0.00 0.00 0.00 0.00 0.00 0.00 0.00 0.00 0.00 0.00 0.00 0.00 0.00 0.00 0.00 0.00 0.00 0.00 0.00 0.00 0.00 0.00 0.00 0.00 0.00 0.01 0.01 0.01 0.01 0.01 0.01 0.01 0.01
0.00 0.00 0.00 0.00 0.00 0.00 0.00 0.00 0.00 0.00 0.00 0.00 0.00 0.00 0.00 0.00 0.00 0.00 0.00 0.00 0.00 0.00 0.00 0.00 0.00 0.00 0.00 0.00 0.00 0.00 0.00 0.00 0.00 0.00 0.00 0.01 0.01 0.01 0.03 0.03 0.02 0.02 0.01
0.00 0.00 0.00 0.00 0.00 0.00 0.00 0.00 0.00 0.00 0.00 0.00 0.00 0.00 0.00 0.00 0.00 0.00 0.00 0.00 0.00 0.00 0.00 0.00 0.00 0.00 0.00 0.00 0.00 0.00 0.00 0.01 0.01 0.01 0.01 0.01 0.02 0.03 0.04 0.04 0.04 0.03 0.02
0.00 0.00 0.00 0.00 0.00 0.00 0.00 0.00 0.00 0.00 0.00 0.00 0.00 0.00 0.00 0.00 0.00 0.00 0.00 0.00 0.00 0.00 0.00 0.00 0.00 0.00 0.00 0.00 0.00 0.00 0.01 0.01 0.02 0.02 0.01 0.01 0.02 0.03 0.03 0.04 0.04 0.04 0.04
0.00 0.00 0.00 0.00 0.00 0.00 0.00 0.00 0.00 0.00 0.00 0.00 0.00 0.00 0.00 0.00 0.00 0.00 0.00 0.00 0.00 0.00 0.00 0.00 0.00 0.00 0.00 0.00 0.00 0.01 0.01 0.02 0.02 0.02 0.01 0.01 0.02 0.03 0.04 0.04 0.04 0.05 0.06
0.00 0.00 0.00 0.00 0.00 0.00 0.00 0.00 0.00 0.00 0.00 0.00 0.00 0.00 0.00 0.00 0.00 0.00 0.00 0.00 0.00 0.00 0.00 0.00 0.00 0.00 0.00 0.00 0.00 0.01 0.01 0.02 0.02 0.02 0.02 0.03 0.03 0.03 0.02 0.02 0.02 0.03 0.02
0.00 0.00 0.00 0.00 0.00 0.00 0.00 0.00 0.00 0.00 0.00 0.00 0.00 0.00 0.00 0.00 0.00 0.00 0.00 0.00 0.00 0.00 0.00 0.00 0.00 0.00 0.00 0.00 0.00 0.01 0.01 0.01 0.02 0.02 0.02 0.02 0.02 0.01 0.01 0.01 0.01 0.01 0.01
0.00 0.00 0.00 0.00 0.00 0.00 0.00 0.00 0.00 0.00 0.00 0.00 0.00 0.00 0.00 0.00 0.00 0.00 0.00 0.00 0.00 0.00 0.00 0.00 0.01 0.01 0.01 0.01 0.01 0.02 0.02 0.02 0.03 0.03 0.03 0.02 0.01 0.01 0.01 0.01 0.01 0.01 0.01
0.00 0.00 0.00 0.00 0.00 0.00 0.00 0.00 0.00 0.00 0.00 0.00 0.00 0.00 0.00 0.00 0.00 0.00 0.00 0.00 0.00 0.00 0.00 0.00 0.00 0.01 0.01 0.01 0.01 0.02 0.02 0.02 0.03 0.04 0.04 0.02 0.01 0.01 0.01 0.01 0.01 0.01 0.01
MSLP
1016.13 1016.43 1016.64 1016.77 1016.84 1016.88 1016.94 1017.06 1017.24 1017.51 1017.82 1018.18 1018.52 1018.84 1019.11 1019.34 1019.52 1019.68 1019.83 1020.00 1020.20 1020.42 1020.65 1020.89 1021.11 1021.31 1021.47 1021.60 1021.69 1021.74 1021.74 1021.70 1021.60 1021.43 1021.18 1020.85 1020.46 1020.00 1019.54 1019.08 1018.67 1018.34 1018.11
1016.40 1016.78 1017.04 1017.21 1017.29 1017.34 1017.39 1017.49 1017.66 1017.91 1018.22 1018.55 1018.88 1019.17 1019.40 1019.57 1019.69 1019.78 1019.88 1019.99 1020.15 1020.33 1020.55 1020.77 1020.99 1021.18 1021.34 1021.45 1021.53 1021.57 1021.58 1021.54 1021.44 1021.29 1021.05 1020.73 1020.34 1019.87 1019.37 1018.87 1018.40 1018.00 1017.70
1016.51 1016.96 1017.30 1017.51 1017.63 1017.69 1017.76 1017.86 1018.04 1018.29 1018.60 1018.93 1019.24 1019.50 1019.70 1019.83 1019.90 1019.94 1019.98 1020.04 1020.14 1020.29 1020.46 1020.66 1020.84 1021.00 1021.13 1021.22 1021.28 1021.30 1021.31 1021.28 1021.22 1021.09 1020.90 1020.62 1020.25 1019.80 1019.29 1018.75 1018.23 1017.77 1017.38
1016.44 1016.97 1017.38 1017.66 1017.83 1017.93 1018.02 1018.15 1018.34 1018.60 1018.91 1019.24 1019.54 1019.79 1019.96 1020.06 1020.09 1020.09 1020.09 1020.10 1020.16 1020.26 1020.39 1020.53 1020.67 1020.78 1020.86 1020.91 1020.94 1020.95 1020.95 1020.94 1020.91 1020.83 1020.69 1020.46 1020.14 1019.72 1019.22 1018.67 1018.11 1017.58 1017.12
1016.20 1016.82 1017.31 1017.67 1017.90 1018.06 1018.19 1018.34 1018.54 1018.81 1019.11 1019.44 1019.73 1019.97 1020.14 1020.22 1020.23 1020.21 1020.18 1020.17 1020.19 1020.25 1020.33 1020.41 1020.49 1020.54 1020.56 1020.56 1020.55 1020.54 1020.53 1020.54 1020.53 1020.50 1020.41 1020.24 1019.96 1019.58 1019.09 1018.54 1017.95 1017.38 1016.84
1015.85 1016.56 1017.13 1017.56 1017.87 1018.08 1018.25 1018.42 1018.64 1018.90 1019.20 1019.52 1019.80 1020.04 1020.20 1020.29 1020.30 1020.29 1020.26 1020.23 1020.23 1020.25 1020.28 1020.31 1020.33 1020.31 1020.27 1020.21 1020.15 1020.11 1020.09 1020.09 1020.10 1020.10 1020.04 1019.91 1019.67 1019.32 1018.85 1018.30 1017.70 1017.09 1016.50
1015.43 1016.21 1016.87 1017.38 1017.75 1018.02 1018.23 1018.43 1018.65 1018.90 1019.19 1019.49 1019.77 1020.01 1020.18 1020.28 1020.32 1020.32 1020.30 1020.29 1020.27 1020.27 1020.26 1020.24 1020.19 1020.11 1020.01 1019.89 1019.77 1019.69 1019.63 1019.62 1019.62 1019.62 1019.58 1019.46 1019.24 1018.91 1018.46 1017.92 1017.31 1016.69 1016.08
1014.99 1015.83 1016.56 1017.14 1017.58 1017.91 1018.16 1018.38 1018.60 1018.86 1019.13 1019.42 1019.69 1019.92 1020.10 1020.23 1020.30 1020.33 1020.34 1020.34 1020.32 1020.30 1020.26 1020.19 1020.08 1019.94 1019.77 1019.59 1019.42 1019.29 1019.19 1019.14 1019.12 1019.09 1019.03 1018.91 1018.69 1018.36 1017.92 1017.39 1016.80 1016.18 1015.58
1014.55 1015.44 1016.23 1016.87 1017.38 1017.76 1018.06 1018.30 1018.54 1018.80 1019.06 1019.34 1019.60 1019.84 1020.03 1020.18 1020.28 1020.34 1020.37 1020.38 1020.36 1020.32 1020.25 1020.13 1019.97 1019.77 1019.54 1019.31 1019.09 1018.90 1018.76 1018.67 1018.60 1018.53 1018.44 1018.28 1018.04 1017.70 1017.27 1016.75 1016.18 1015.60 1015.02
1014.12 1015.04 1015.87 1016.57 1017.14 1017.59 1017.94 1018.23 1018.50 1018.76 1019.03 1019.30 1019.56 1019.79 1020.00 1020.16 1020.27 1020.35 1020.39 1020.40 1020.37 1020.30 1020.19 1020.02 1019.81 1019.56 1019.29 1019.01 1018.75 1018.52 1018.34 1018.20 1018.08 1017.96 1017.82 1017.62 1017.35 1017.00 1016.56 1016.06 1015.52 1014.98 1014.44
1013.70 1014.63 1015.50 1016.25 1016.89 1017.41 1017.83 1018.18 1018.49 1018.78 1019.06 1019.32 1019.58 1019.80 1020.00 1020.16 1020.27 1020.35 1020.38 1020.37 1020.31 1020.20 1020.05 1019.83 1019.58 1019.28 1018.97 1018.67 1018.38 1018.13 1017.91 1017.74 1017.58 1017.41 1017.22 1016.98 1016.67 1016.30 1015.86 1015.37 1014.86 1014.36 1013.87
1013.29 1014.22 1015.11 1015.92 1016.63 1017.22 1017.73 1018.15 1018.51 1018.83 1019.13 1019.39 1019.64 1019.85 1020.02 1020.16 1020.25 1020.30 1020.30 1020.26 1020.16 1020.00 1019.79 1019.54 1019.24 1018.91 1018.58 1018.26 1017.96 1017.70 1017.48 1017.28 1017.09 1016.89 1016.66 1016.38 1016.04 1015.64 1015.19 1014.71 1014.22 1013.75 1013.30
1012.91 1013.83 1014.74 1015.60 1016.37 1017.05 1017.63 1018.13 1018.55 1018.90 1019.21 1019.48 1019.70 1019.88 1020.02 1020.12 1020.18 1020.18 1020.14 1020.04 1019.89 1019.69 1019.43 1019.13 1018.80 1018.46 1018.12 1017.79 1017.50 1017.25 1017.02 1016.82 1016.62 1016.40 1016.14 1015.82 1015.44 1015.02 1014.55 1014.07 1013.59 1013.14 1012.72
1012.58 1013.50 1014.43 1015.32 1016.15 1016.90 1017.55 1018.11 1018.58 1018.96 1019.28 1019.53 1019.72 1019.86 1019.96 1020.01 1020.01 1019.97 1019.88 1019.73 1019.54 1019.29 1018.99 1018.66 1018.30 1017.94 1017.60 1017.28 1017.00 1016.76 1016.55 1016.35 1016.14 1015.90 1015.62 1015.27 1014.86 1014.40 1013.91 1013.41 1012.92 1012.47 1012.06
1012.35 1013.27 1014.21 1015.13 1016.00 1016.80 1017.50 1018.09 1018.58 1018.98 1019.28 1019.50 1019.65 1019.74 1019.79 1019.79 1019.74 1019.66 1019.53 1019.34 1019.11 1018.83 1018.51 1018.16 1017.79 1017.42 1017.07 1016.76 1016.49 1016.26 1016.05 1015.85 1015.63 1015.38 1015.06 1014.68 1014.24 1013.74 1013.21 1012.67 1012.16 1011.69 1011.27
1012.27 1013.18 1014.12 1015.05 1015.94 1016.75 1017.47 1018.07 1018.55 1018.92 1019.19 1019.36 1019.46 1019.50 1019.50 1019.46 1019.38 1019.27 1019.12 1018.92 1018.68 1018.38 1018.05 1017.69 1017.30 1016.93 1016.57 1016.25 1015.97 1015.73 1015.51 1015.29 1015.06 1014.77 1014.43 1014.01 1013.52 1012.98 1012.40 1011.82 1011.27 1010.76 1010.33
1012.38 1013.27 1014.20 1015.12 1015.98 1016.78 1017.46 1018.03 1018.47 1018.79 1019.00 1019.12 1019.16 1019.15 1019.11 1019.04 1018.95 1018.83 1018.68 1018.49 1018.26 1017.98 1017.64 1017.27 1016.88 1016.49 1016.11 1015.77 1015.46 1015.18 1014.92 1014.67 1014.40 1014.07 1013.68 1013.22 1012.68 1012.09 1011.46 1010.83 1010.23 1009.69 1009.22
1012.67 1013.55 1014.44 1015.31 1016.12 1016.85 1017.47 1017.97 1018.34 1018.58 1018.72 1018.77 1018.76 1018.71 1018.64 1018.56 1018.47 1018.37 1018.25 1018.09 1017.88 1017.62 1017.30 1016.93 1016.53 1016.11 1015.69 1015.30 1014.93 1014.60 1014.28 1013.97 1013.64 1013.26 1012.82 1012.31 1011.73 1011.08 1010.41 1009.73 1009.08 1008.50 1008.01
1013.13 1013.97 1014.80 1015.59 1016.32 1016.96 1017.48 1017.88 1018.16 1018.31 1018.37 1018.36 1018.30 1018.22 1018.13 1018.06 1017.98 1017.91 1017.83 1017.71 1017.54 1017.30 1016.99 1016.62 1016.19 1015.74 1015.27 1014.81 1014.38 1013.97 1013.58 1013.20 1012.80 1012.37 1011.88 1011.32 1010.70 1010.01 1009.30 1008.58 1007.90 1007.29 1006.77
1013.68 1014.46 1015.21 1015.90 1016.52 1017.05 1017.46 1017.75 1017.92 1017.99 1017.98 1017.91 1017.81 1017.71 1017.62 1017.55 1017.50 1017.46 1017.41 1017.32 1017.18 1016.96 1016.66 1016.28 1015.83 1015.33 1014.81 1014.28 1013.77 1013.28 1012.82 1012.37 1011.91 1011.42 1010.90 1010.31 1009.66 1008.96 1008.22 1007.48 1006.78 1006.14 1005.60
1014.23 1014.94 1015.59 1016.17 1016.67 1017.08 1017.37 1017.56 1017.65 1017.64 1017.57 1017.46 1017.33 1017.21 1017.12 1017.06 1017.02 1017.00 1016.97 1016.90 1016.77 1016.56 1016.26 1015.86 1015.38 1014.85 1014.27 1013.68 1013.11 1012.55 1012.03 1011.52 1011.01 1010.50 1009.94 1009.34 1008.69 1007.99 1007.25 1006.51 1005.80 1005.14 1004.58
1014.71 1015.32 1015.86 1016.33 1016.72 1017.02 1017.21 1017.32 1017.33 1017.27 1017.16 1017.02 1016.88 1016.75 1016.65 1016.58 1016.54 1016.52 1016.48 1016.40 1016.26 1016.04 1015.73 1015.31 1014.81 1014.25 1013.64 1013.01 1012.39 1011.79 1011.23 1010.69 1010.16 1009.63 1009.07 1008.48 1007.84 1007.16 1006.44 1005.71 1005.00 1004.35 1003.78
1015.04 1015.55 1015.99 1016.36 1016.64 1016.85 1016.98 1017.02 1016.99 1016.91 1016.78 1016.63 1016.47 1016.33 1016.21 1016.12 1016.06 1016.00 1015.93 1015.82 1015.65 1015.40 1015.06 1014.63 1014.12 1013.54 1012.92 1012.28 1011.65 1011.03 1010.46 1009.91 1009.38 1008.86 1008.32 1007.75 1007.14 1006.49 1005.81 1005.10 1004.41 1003.76 1003.18
1015.19 1015.61 1015.96 1016.24 1016.45 1016.60 1016.68 1016.69 1016.65 1016.56 1016.43 1016.28 1016.12 1015.96 1015.81 1015.69 1015.57 1015.45 1015.32 1015.16 1014.94 1014.65 1014.29 1013.85 1013.33 1012.76 1012.15 1011.53 1010.91 1010.32 1009.75 1009.22 1008.70 1008.20 1007.68 1007.14 1006.57 1005.96 1005.31 1004.65 1003.98 1003.35 1002.77
1015.20 1015.53 1015.81 1016.02 1016.18 1016.29 1016.35 1016.36 1016.32 1016.24 1016.12 1015.98 1015.81 1015.63 1015.45 1015.26 1015.08 1014.89 1014.69 1014.46 1014.18 1013.86 1013.47 1013.03 1012.52 1011.98 1011.41 1010.82 1010.24 1009.67 1009.13 1008.62 1008.13 1007.64 1007.14 1006.63 1006.09 1005.52 1004.91 1004.28 1003.66 1003.05 1002.49
1015.10 1015.37 1015.58 1015.75 1015.88 1015.97 1016.02 1016.04 1016.02 1015.96 1015.86 1015.71 1015.54 1015.33 1015.10 1014.86 1014.61 1014.34 1014.06 1013.76 1013.43 1013.07 1012.67 1012.24 1011.76 1011.26 1010.73 1010.19 1009.66 1009.13 1008.62 1008.12 1007.63 1007.15 1006.67 1006.17 1005.65 1005.10 1004.53 1003.95 1003.36 1002.80 1002.27
Thickness
5682 5682 5681 5679 5678 5676 5673 5669 5665 5662 5658 5653 5648 5643 5638 5635 5632 5629 5626 5623 5620 5617 5614 5611 5608 5605 5602 5600 5598 5596 5594 5593 5591 5589 5590 5595 5597 5600 5602 5603 5603 5603 5601
5674 5674 5673 5671 5669 5666 5664 5660 5657 5653 5650 5645 5641 5637 5632 5629 5625 5622 5619 5616 5613 5610 5608 5604 5601 5599 5596 5593 5591 5589 5586 5585 5582 5578 5575 5578 5587 5593 5598 5598 5597 5596 5595
5669 5666 5664 5661 5659 5657 5655 5653 5649 5645 5641 5638 5633 5629 5624 5621 5617 5614 5611 5610 5607 5604 5602 5599 5596 5593 5590 5587 5584 5582 5579 5576 5574 5570 5564 5562 5566 5575 5584 5585 5585 5585 5584
5665 5661 5658 5653 5651 5649 5647 5644 5641 5637 5633 5629 5625 5620 5615 5611 5609 5607 5605 5603 5601 5598 5595 5592 5589 5586 5583 5580 5578 5576 5572 5569 5566 5563 5560 5558 5555 5553 5562 5571 5572 5570 5568
5660 5656 5652 5648 5645 5642 5639 5636 5633 5629 5625 5621 5617 5612 5608 5605 5602 5600 5598 5595 5593 5591 5588 5585 5582 5578 5576 5573 5570 5568 5565 5561 5557 5554 5551 5548 5546 5543 5542 5551 5555 5555 5555
5655 5650 5647 5642 5638 5635 5632 5629 5625 5620 5617 5613 5609 5605 5600 5596 5593 5590 5588 5586 5584 5582 5580 5577 5573 5570 5567 5565 5562 5559 5556 5552 5549 5545 5541 5537 5532 5530 5527 5531 5536 5538 5541
5650 5645 5640 5636 5631 5628 5625 5622 5617 5613 5609 5605 5601 5597 5593 5589 5585 5582 5579 5576 5574 5572 5570 5567 5564 5561 5559 5556 5553 5550 5546 5543 5538 5535 5531 5527 5524 5519 5515 5513 5517 5519 5522
5646 5641 5636 5631 5626 5622 5619 5615 5610 5605 5602 5597 5593 5589 5585 5581 5577 5574 5571 5568 5565 5563 5561 5558 5555 5552 5550 5547 5543 5540 5536 5532 5528 5524 5520 5515 5511 5506 5500 5494 5492 5496 5503
5643 5637 5632 5626 5621 5616 5612 5608 5603 5598 5593 5589 5584 5580 5576 5572 5568 5565 5562 5559 5557 5554 5552 5549 5546 5543 5540 5536 5533 5529 5525 5521 5516 5512 5507 5503 5498 5492 5486 5479 5472 5466 5473
5640 5633 5627 5621 5615 5610 5605 5600 5595 5589 5585 5580 5575 5571 5567 5564 5560 5556 5553 5550 5548 5545 5542 5539 5535 5532 5529 5525 5521 5517 5513 5508 5504 5498 5493 5488 5482 5476 5469 5462 5456 5448 5443
5636 5629 5622 5616 5609 5602 5596 5591 5586 5581 5575 5570 5566 5561 5557 5554 5551 5547 5544 5541 5538 5534 5531 5528 5524 5521 5517 5513 5508 5504 5498 5493 5488 5482 5476 5470 5463 5457 5451 5443 5437 5430 5422
5631 5623 5616 5608 5600 5593 5587 5581 5576 5571 5565 5560 5556 5552 5548 5545 5541 5537 5534 5531 5527 5523 5520 5516 5512 5509 5504 5499 5494 5489 5483 5477 5470 5463 5456 5450 5443 5436 5429 5423 5417 5411 5404
5623 5615 5607 5599 5591 5585 5578 5572 5566 5561 5555 5550 5546 5541 5537 5534 5530 5526 5523 5519 5515 5512 5508 5504 5499 5495 5490 5485 5480 5474 5468 5461 5453 5445 5437 5430 5421 5416 5409 5403 5398 5393 5388
5613 5605 5597 5589 5582 5575 5568 5562 5556 5550 5545 5540 5535 5530 5526 5523 5519 5515 5511 5507 5503 5500 5496 5492 5487 5482 5477 5471 5465 5459 5452 5445 5438 5430 5421 5413 5405 5398 5393 5388 5383 5377 5373
5602 5595 5586 5579 5571 5564 5557 5551 5545 5540 5534 5529 5524 5520 5516 5512 5508 5504 5500 5496 5492 5488 5483 5479 5475 5469 5463 5456 5450 5443 5437 5430 5424 5416 5407 5399 5391 5386 5380 5376 5372 5366 5362
5592 5584 5576 5568 5560 5553 5546 5539 5533 5529 5524 5518 5514 5510 5506 5501 5497 5492 5488 5484 5480 5476 5471 5467 5462 5456 5450 5443 5437 5430 5424 5417 5409 5402 5394 5386 5379 5374 5370 5366 5363 5358 5353
5580 5572 5563 5556 5548 5541 5535 5528 5523 5518 5513 5508 5504 5500 5495 5491 5486 5482 5477 5472 5468 5464 5459 5454 5448 5443 5436 5429 5423 5416 5409 5402 5394 5385 5379 5374 5368 5362 5358 5355 5353 5350 5346
5568 5559 5550 5543 5536 5530 5524 5518 5512 5507 5502 5498 5494 5490 5485 5480 5475 5470 5466 5461 5457 5452 5447 5441 5435 5429 5422 5414 5408 5401 5395 5387 5379 5371 5365 5360 5357 5351 5347 5346 5345 5343 5341
5555 5545 5537 5530 5524 5518 5512 5506 5501 5496 5492 5488 5484 5480 5474 5469 5464 5459 5454 5450 5445 5440 5434 5428 5421 5414 5408 5399 5392 5385 5379 5372 5366 5359 5353 5348 5345 5343 5340 5339 5339 5339 5338
5539 5531 5524 5518 5512 5506 5501 5495 5490 5485 5481 5478 5474 5469 5464 5458 5453 5448 5443 5438 5432 5427 5421 5415 5407 5399 5392 5385 5376 5368 5362 5358 5354 5349 5343 5339 5336 5335 5334 5332 5332 5333 5334
5524 5518 5512 5505 5500 5495 5490 5484 5479 5474 5471 5468 5464 5459 5453 5447 5442 5437 5431 5425 5419 5414 5407 5402 5395 5385 5376 5370 5361 5353 5346 5342 5340 5338 5335 5331 5329 5329 5329 5328 5328 5328 5330
5511 5505 5498 5492 5488 5484 5478 5473 5468 5465 5462 5457 5452 5447 5442 5436 5431 5424 5418 5411 5404 5398 5391 5385 5380 5371 5362 5353 5346 5340 5335 5330 5328 5327 5326 5324 5324 5324 5325 5325 5325 5326 5327
5498 5492 5486 5481 5476 5472 5467 5461 5458 5455 5450 5445 5440 5435 5430 5424 5417 5411 5404 5397 5389 5381 5374 5367 5363 5359 5350 5341 5334 5329 5325 5321 5319 5319 5319 5320 5320 5320 5320 5319 5320 5321 5319
5486 5480 5474 5469 5464 5460 5456 5451 5448 5443 5438 5433 5428 5423 5417 5412 5405 5398 5390 5382 5373 5364 5357 5350 5345 5342 5337 5328 5322 5319 5316 5314 5313 5312 5313 5315 5314 5313 5314 5314 5313 5311 5310
5474 5468 5462 5457 5453 5449 5445 5441 5436 5431 5426 5421 5416 5410 5404 5398 5392 5385 5376 5368 5360 5347 5341 5336 5329 5325 5325 5321 5315 5312 5312 5309 5308 5309 5310 5309 5308 5307 5307 5306 5305 5305 5305
5461 5455 5450 5445 5441 5437 5433 5429 5424 5419 5414 5409 5403 5396 5390 5383 5376 5370 5366 5359 5347 5340 5330 5322 5316 5314 5312 5312 5309 5307 5306 5305 5305 5304 5303 5302 5301 5301 5300 5300 5299 5299 5299